Terminal Aerodrome Forecast
Issued by NWS Milwaukee/Sullivan, WI

Home | Current Version | Previous Version | Text Only | Print | Product List | Glossary On
Versions: 1 2 3 4 5 6 7 8 9 10 11 12 13 14 15 16 17 18 19 20 21 22 23 24 25 26 27 28 29 30 31 32 33 34 35 36 37 38 39 40 41 42 43 44 45 46 47 48 49 50
000
FTUS43 KMKX 172320
TAFMKE
TAF
KMKE 172320Z 1800/1906 VRB03KT 4SM BR OVC007
     FM180300 VRB03KT 3SM -SHRA BR OVC008
     FM181000 27004KT 4SM BR OVC008
     FM181600 25008KT P6SM BKN008
     FM182000 24010KT P6SM SCT015
     FM190200 23012KT P6SM SCT060 WS006/25040KT=

USA.gov is the U.S. government's official web portal to all federal, state and local government web resources and services.